GFSMW_con_sbcape_117.txt.gz
CAPE
0 0 0 0 0 0 0 0 0 0 0 0 0 0 0 0 0 0 0 4 1148 1318 1370 1488 1381 1324 1406 1354 1124 1005 1365 1079 856 915 532 505 402 485 437 367 381 200 0
7 0 0 0 0 0 0 0 0 0 0 0 0 0 0 0 0 0 0 0 0 325 1175 1453 1439 1625 1257 800 1050 1076 816 1049 964 764 435 628 316 447 414 313 257 241 58
0 0 0 0 0 0 0 0 0 0 0 0 0 0 0 0 0 0 0 0 0 0 255 1257 1328 1355 1302 879 863 884 1113 1244 854 740 524 237 332 100 171 334 281 155 58
0 0 0 0 0 0 0 0 0 0 0 0 0 0 0 0 0 0 0 0 0 0 0 2 813 1285 1157 1006 815 950 1196 1019 1016 637 345 74 41 43 70 106 272 124 146
0 0 0 0 0 0 0 0 0 0 0 0 0 0 0 0 0 0 0 0 0 0 0 0 0 767 922 869 813 688 1266 894 853 891 1021 464 141 71 73 145 273 159 130
0 0 0 0 0 0 0 0 0 0 0 0 0 0 0 0 0 0 0 0 0 0 0 0 0 0 920 1141 832 748 842 1301 1228 716 580 784 693 449 129 60 107 300 135
0 0 0 0 0 0 0 0 0 0 0 0 0 0 2 3 3 3 3 1 0 0 0 0 0 0 217 1048 1190 791 820 1053 1218 821 771 647 625 494 387 84 67 124 74
0 0 0 0 0 0 0 0 0 0 0 0 0 0 0 2 3 1 3 5 6 1 0 0 0 0 0 511 932 899 962 1136 1193 960 882 737 577 422 237 314 84 75 45
0 0 0 0 0 0 0 0 0 0 0 0 0 0 0 2 3 5 4 5 5 7 2 1 1 0 0 47 863 832 708 1395 1443 1255 954 716 579 501 199 125 124 137 108
0 0 0 0 0 0 0 0 0 0 0 0 0 3 3 4 6 6 6 10 11 11 10 0 0 3 4 4 871 549 806 1068 1329 1325 1117 750 445 161 160 107 94 78 19
0 0 0 0 0 0 0 0 0 0 1 1 3 4 6 7 7 9 12 14 14 15 16 16 8 5 4 0 935 844 800 898 1050 1173 982 704 170 179 155 56 3 74 52
0 0 0 0 0 0 0 0 0 1 1 0 6 9 9 10 10 10 10 15 15 12 14 18 19 0 1 3 871 1338 1067 957 1098 1178 944 573 113 68 0 0 0 41 25
0 0 0 0 0 1 2 4 0 4 0 2 8 8 10 10 10 10 13 12 13 12 8 3 4 2 3 2 658 991 1261 1069 948 1011 963 915 363 26 30 100 177 153 81
0 0 0 1 2 3 4 4 1 6 1 10 9 10 10 9 10 10 9 10 10 9 6 6 3 2 0 95 632 642 665 696 937 766 912 891 375 8 33 163 124 79 76
0 1 2 3 4 5 5 1 0 4 8 8 8 3 3 6 6 7 6 5 7 7 3 4 5 1 1 1 3 41 551 722 227 0 0 1 1 19 44 0 0 0 0
3 3 3 2 3 6 4 1 1 2 4 3 4 1 0 0 2 4 4 2 2 3 0 0 2 2 3 0 0 0 187 1 0 0 0 0 0 2 2 1 0 0 0
4 2 2 4 3 1 3 1 2 3 2 2 3 4 0 1 1 2 1 0 0 0 1 0 2 0 0 2 3 0 3 2 4 7 13 5 12 0 0 1 1 1 1
3 0 0 0 2 1 2 3 4 2 1 1 1 2 3 2 2 2 1 0 0 0 0 0 0 0 4 2 4 1 4 1 4 3 6 9 3 6 2 4 0 0 0
0 1 2 2 1 0 2 2 2 3 0 0 0 1 0 0 1 0 0 0 0 0 0 0 0 0 1 11 5 0 0 4 6 10 2 9 1 5 3 1 1 1 0
0 1 5 5 0 0 0 0 0 0 0 0 0 1 0 0 0 0 0 0 0 0 0 0 0 5 0 15 11 2 0 0 0 0 0 5 3 5 2 0 0 0 0
5 10 1 0 1 0 0 0 0 0 0 0 0 0 0 0 0 0 0 0 0 0 0 0 0 0 1 2 19 10 0 0 0 0 0 2 7 4 5 3 0 1 0
8 1 1 0 0 0 0 0 0 0 0 0 0 0 0 0 0 0 0 0 0 0 0 0 0 0 0 6 9 10 10 4 0 0 0 4 13 13 10 3 6 3 0
0 0 0 0 0 0 0 0 0 0 0 0 0 0 0 0 0 0 0 0 0 0 0 0 0 0 0 0 3 4 5 3 0 1 6 5 4 4 1 6 4 0 0
0 0 0 0 0 0 0 0 0 0 0 0 0 0 0 0 0 0 0 0 0 0 0 0 0 0 0 0 0 0 0 0 0 0 0 0 1 0 0 0 0 0 0
0 0 0 0 0 0 0 0 0 0 0 0 0 0 0 0 0 0 0 0 0 0 0 0 0 0 0 0 0 0 0 0 0 0 0 0 0 0 0 0 0 0 0
0 0 0 0 0 0 0 0 0 0 0 0 0 0 0 0 0 0 0 8 0 0 5 7 1 0 6 6 2 0 0 0 0 0 0 0 0 0 0 0 0 0 0

GFSMW_con_sbcape_120.txt.gz
CAPE
0 0 0 0 0 0 0 0 0 0 0 0 0 0 0 0 0 0 0 0 0 0 0 716 992 823 783 811 875 1132 667 423 306 422 200 194 207 269 186 256 169 67 23
0 0 0 0 0 0 0 0 0 0 0 0 0 0 0 0 0 0 0 0 0 0 0 0 12 807 965 847 478 732 444 740 342 657 125 505 175 141 76 109 187 101 47
0 0 0 0 0 0 0 0 0 0 0 0 0 0 0 0 0 0 0 0 0 0 0 0 0 0 417 677 651 508 483 313 263 217 195 123 379 52 31 134 174 131 77
0 0 0 0 0 0 0 0 0 0 0 0 0 0 0 0 0 0 0 0 0 0 0 0 0 0 0 220 511 454 448 423 196 177 254 0 2 35 87 20 252 112 79
0 0 0 0 0 0 0 0 0 0 0 0 0 0 0 0 0 0 0 0 0 0 0 0 0 0 0 0 257 406 367 244 135 87 346 42 0 0 0 10 60 96 131
0 0 0 0 0 0 0 0 0 0 0 0 0 0 0 0 0 0 0 0 0 0 0 0 0 1 0 0 0 326 264 38 29 61 135 238 91 15 17 14 3 83 148
0 0 0 0 0 0 0 0 0 0 0 0 0 0 0 0 0 0 0 1 1 0 0 0 0 1 1 4 0 1 396 267 164 206 217 223 206 105 41 8 37 40 25
0 0 0 0 0 0 0 0 0 0 0 0 0 0 0 0 1 2 2 2 3 2 0 0 1 1 2 4 1 0 71 422 334 277 349 320 314 329 64 88 60 26 34
0 0 0 0 0 0 0 0 0 0 0 0 0 0 0 0 1 1 4 5 4 6 6 6 4 4 0 0 1 2 0 410 460 430 493 478 522 435 213 125 46 94 33
0 0 0 0 0 0 0 0 0 1 0 0 0 1 0 0 3 0 1 8 7 8 11 10 10 9 8 0 1 1 4 108 416 633 694 591 582 433 361 284 139 69 34
0 0 0 0 0 0 0 0 0 1 0 0 0 0 1 6 10 11 11 12 10 11 9 10 12 11 9 9 6 3 3 5 433 775 830 809 600 450 400 280 118 27 2
0 0 0 0 0 0 0 0 0 0 5 5 3 0 3 10 8 9 10 11 11 12 12 13 13 13 11 12 9 3 1 0 390 634 939 1064 897 667 446 283 189 57 4
0 0 0 0 0 1 1 0 0 0 5 5 10 11 14 13 8 8 9 8 9 11 11 9 15 16 15 4 13 0 2 4 379 583 624 961 1038 783 590 360 130 0 5
0 0 0 0 0 3 0 0 5 2 5 1 2 7 10 16 16 13 10 9 8 8 9 10 9 11 6 4 6 4 1 9 661 653 581 866 922 737 432 133 30 0 4
1 1 1 2 0 0 0 1 4 2 2 3 1 4 8 8 9 9 8 8 7 7 6 9 6 8 4 5 2 3 3 33 517 257 225 388 766 339 220 43 33 12 8
2 2 1 3 2 0 2 1 1 1 2 1 2 1 3 5 4 7 7 4 4 4 2 2 4 3 6 4 0 0 3 2 1 1 4 5 3 1 1 1 3 0 2
3 2 0 2 0 0 1 3 3 2 2 1 1 1 1 1 1 3 2 1 0 0 0 0 1 2 1 5 1 0 1 2 3 7 13 4 10 8 9 4 4 3 1
0 0 0 0 0 0 0 0 1 0 0 0 0 1 0 0 1 0 0 0 0 0 0 0 0 0 4 4 0 1 0 2 0 0 0 2 10 5 1 8 3 4 2
0 0 0 0 0 0 0 0 0 0 0 0 0 0 0 0 0 0 0 0 0 0 0 0 0 0 1 15 9 0 0 0 0 0 0 2 4 4 2 1 8 8 2
0 0 1 0 0 0 0 0 0 0 0 0 0 0 0 0 0 0 0 0 0 0 0 0 0 4 0 15 17 3 0 0 0 0 0 11 5 3 2 2 1 0 0
0 6 0 0 0 0 0 0 0 0 0 0 0 0 0 0 0 0 0 0 0 0 0 0 0 0 3 5 14 6 0 0 0 0 0 3 12 10 8 3 0 0 0
11 4 0 0 0 0 0 0 0 0 0 0 0 0 0 0 0 0 0 0 0 0 0 0 0 0 0 11 10 6 6 2 0 0 0 1 7 9 8 2 6 3 0
4 0 0 0 0 0 0 0 0 0 0 0 0 0 0 0 0 0 0 0 0 0 0 0 1 0 0 0 3 4 2 2 0 0 2 4 3 2 0 5 4 0 0
3 0 0 0 0 0 0 0 0 0 0 0 0 0 0 0 0 0 0 0 0 0 0 0 0 1 0 0 0 0 0 0 0 0 0 0 0 0 0 0 0 0 0
0 0 0 0 0 0 0 0 0 0 0 0 0 0 0 0 0 0 0 0 0 3 1 0 0 0 0 1 2 0 0 0 0 0 0 0 0 0 0 0 0 0 0
0 0 0 0 0 0 0 0 0 0 0 0 0 0 0 0 0 0 0 0 0 7 10 8 2 0 6 8 7 6 2 1 0 0 0 0 0 0 0 0 0 0 0

GFSMW_con_sbcape_123.txt.gz
CAPE
0 0 0 0 0 0 0 0 0 0 0 0 0 0 0 0 0 0 0 0 0 0 0 1 1 35 113 46 408 808 789 522 142 166 101 78 86 175 299 291 167 61 5
0 0 0 0 0 0 0 0 0 0 0 0 0 0 0 0 0 0 0 0 0 0 0 0 0 10 1 154 151 619 665 458 119 340 34 254 178 92 126 212 201 141 68
0 0 0 0 0 0 0 0 0 0 0 0 0 0 0 0 0 0 0 0 0 0 0 0 0 0 1 4 27 321 285 346 200 262 120 80 141 54 48 140 200 128 97
0 0 0 0 0 0 0 0 0 0 0 0 0 0 0 0 0 0 0 0 0 0 0 0 0 0 0 0 0 0 204 21 10 132 74 101 0 24 11 48 174 128 135
0 0 0 0 0 0 0 0 0 0 0 0 0 0 0 0 0 0 0 0 0 0 0 0 0 1 2 2 4 0 0 267 58 88 24 37 3 30 0 3 48 132 173
0 0 0 0 0 0 0 0 0 0 0 0 0 0 0 0 0 0 0 0 0 0 0 0 0 1 2 2 3 4 1 41 305 101 33 8 15 8 14 0 0 61 149
0 0 0 0 0 0 0 0 0 0 0 0 0 0 0 0 0 0 0 1 2 1 0 0 0 1 0 0 1 2 1 0 51 79 3 9 18 11 8 31 8 6 2
0 0 1 0 0 0 0 0 0 1 1 0 0 0 0 0 2 1 0 1 7 5 1 2 2 4 5 4 0 0 0 3 0 69 0 0 21 76 26 0 0 0 0
1 1 0 1 0 0 0 0 0 1 1 1 1 0 0 0 3 5 4 7 8 6 6 6 9 9 8 8 7 1 1 1 3 0 115 10 44 103 112 96 4 67 47
1 0 0 0 0 0 0 2 2 4 3 6 1 0 0 0 6 8 6 6 10 10 10 11 10 11 12 12 11 10 4 4 0 5 24 173 228 169 193 179 68 90 168
0 0 0 0 0 0 0 0 1 2 2 7 8 0 4 2 3 4 10 8 10 8 10 11 11 10 8 11 12 11 10 3 1 1 8 135 305 231 307 221 204 143 155
0 0 0 0 0 0 0 1 1 1 5 1 4 9 10 11 9 13 10 10 10 10 11 8 9 9 13 15 14 12 16 15 9 3 1 12 450 277 369 318 315 267 111
0 0 0 0 1 0 1 1 2 4 0 0 1 7 6 11 17 16 12 10 10 10 9 10 10 10 11 12 13 11 7 9 11 6 2 4 282 483 332 379 446 334 154
0 0 0 0 2 2 3 2 1 2 1 2 1 0 4 10 7 11 9 9 9 7 9 11 11 12 9 11 13 10 8 6 10 4 6 9 146 541 581 418 490 477 338
1 1 1 1 1 1 2 2 2 4 1 0 0 1 1 2 3 3 5 6 6 7 5 5 8 8 8 12 8 3 2 3 10 1 0 0 0 73 655 669 683 410 136
0 1 1 1 1 1 2 0 0 1 0 0 0 0 1 1 1 1 2 1 2 2 1 1 4 5 8 13 8 4 6 2 2 2 1 1 1 1 0 2 1 0 24
1 1 1 2 3 2 1 0 0 0 0 0 0 0 0 0 0 1 0 0 0 0 0 0 0 1 4 15 9 2 2 0 1 2 2 2 2 6 3 2 1 2 0
1 1 1 1 0 0 0 0 0 0 0 0 0 0 0 0 0 0 0 0 0 0 0 0 0 0 6 15 12 3 0 0 0 1 1 1 1 1 3 1 2 2 7
0 0 0 0 0 0 0 0 0 0 0 0 0 0 0 0 0 0 0 0 0 0 0 0 0 0 0 24 17 3 0 0 1 1 2 0 1 4 1 0 1 4 3
0 0 0 0 0 0 0 0 0 0 0 0 0 0 0 0 0 0 0 0 0 0 0 0 0 6 0 22 16 3 0 0 0 0 0 14 5 7 2 0 0 0 0
0 4 0 0 0 0 0 0 0 0 0 0 0 0 0 0 0 0 0 0 0 0 0 0 0 0 2 0 8 9 0 0 0 0 0 1 13 11 8 4 0 1 0
6 4 2 1 0 0 0 0 0 0 0 0 0 0 0 0 0 0 0 0 0 0 0 0 0 0 0 3 3 3 3 2 0 0 0 1 11 8 7 2 6 4 0
3 2 0 0 0 0 0 0 0 0 0 0 0 0 0 0 0 0 0 0 0 0 0 0 1 1 0 0 2 2 1 0 0 0 0 1 1 1 1 4 2 0 0
2 2 0 0 0 0 0 0 0 0 0 0 0 0 0 0 0 0 0 0 1 1 0 0 1 1 1 0 0 0 0 0 0 0 0 0 0 0 0 0 0 0 0
2 0 0 0 0 0 0 0 0 0 0 0 0 0 0 0 0 0 0 0 0 2 0 0 0 0 0 1 3 2 0 0 0 0 0 0 0 0 0 0 0 0 0
0 0 0 0 0 0 0 0 0 0 0 0 0 0 0 0 0 0 0 0 3 6 6 6 1 0 2 2 3 3 3 1 1 0 0 0 0 0 0 0 0 0 0

GFSMW_con_sbcape_126.txt.gz
CAPE
0 0 0 0 0 0 0 0 0 0 0 0 0 0 0 0 0 0 0 0 0 0 0 0 0 0 3 0 0 0 27 199 404 427 193 105 102 143 203 170 238 206 126
0 0 0 0 0 0 0 0 0 0 0 0 0 0 0 0 0 0 0 0 0 0 0 0 0 0 0 0 8 0 0 0 112 323 106 137 36 61 86 61 119 170 129
0 0 0 0 0 0 0 0 0 0 0 0 0 0 0 0 0 0 0 0 0 0 0 0 0 0 0 0 0 0 13 10 126 153 247 63 61 1 8 75 86 116 75
0 0 0 0 0 0 0 0 0 0 0 0 0 0 0 0 0 0 0 0 0 0 0 0 0 0 0 1 1 6 6 2 19 12 200 199 16 16 3 5 29 82 77
0 0 0 0 0 0 0 0 0 0 0 0 0 0 0 0 0 0 0 0 0 0 0 0 0 0 1 0 0 0 0 4 0 61 79 146 105 62 0 1 0 0 18
0 0 0 0 0 0 0 0 0 0 0 0 0 0 1 1 1 1 1 1 1 0 0 0 0 1 1 2 1 1 0 3 4 3 38 33 47 12 1 0 0 0 0
0 0 0 0 0 1 0 0 0 0 0 0 0 0 0 0 1 1 0 0 1 0 2 2 1 1 2 1 4 1 0 0 2 0 2 144 59 26 3 1 0 0 0
0 0 0 0 0 0 0 0 0 1 1 1 0 0 0 1 1 1 0 4 6 6 5 7 8 5 9 11 9 9 5 3 3 0 2 7 42 29 0 0 0 0 0
0 0 0 0 0 0 0 0 0 0 0 1 0 1 0 2 3 3 7 8 7 6 6 5 8 8 8 10 10 11 11 6 5 6 0 1 20 2 0 2 0 0 0
0 0 0 0 0 0 0 1 1 3 3 6 2 7 7 8 4 7 8 8 7 7 9 7 10 9 9 8 8 9 11 13 7 9 7 2 2 124 36 16 1 0 0
0 0 0 0 0 0 0 0 2 4 6 5 0 7 7 8 10 12 9 10 10 9 12 13 11 14 12 11 10 12 13 13 13 11 11 7 4 5 167 128 53 11 13
0 0 0 0 0 0 0 1 1 1 3 2 4 7 7 11 9 10 13 12 9 8 8 11 11 12 11 12 13 12 11 10 13 10 5 5 0 1 17 236 225 126 91
0 0 0 0 0 2 2 2 3 3 6 6 0 2 2 8 4 8 10 9 9 8 8 6 8 12 10 13 14 17 13 10 9 11 16 10 3 1 2 38 209 263 195
0 0 0 0 0 2 2 2 2 5 5 4 7 6 4 5 8 5 6 9 8 8 7 7 12 13 14 13 16 10 10 4 5 9 8 8 11 12 4 26 57 295 276
0 0 0 0 0 1 0 0 0 0 0 2 0 0 3 2 2 2 2 2 1 4 6 5 7 6 11 14 16 10 9 8 6 8 4 2 1 1 1 8 41 106 274
0 0 0 0 0 0 0 0 0 0 0 0 0 0 1 2 1 0 0 1 0 1 1 1 3 3 10 14 19 13 9 7 5 5 2 1 1 0 0 0 0 0 302
0 0 0 0 0 0 0 0 0 0 0 0 0 0 0 0 0 0 0 0 0 0 0 0 0 0 3 18 16 11 5 5 4 3 2 3 2 1 1 1 1 2 8
0 0 0 0 0 0 0 0 0 0 0 0 0 0 0 0 0 0 0 0 0 0 0 0 0 0 3 19 13 9 0 0 0 1 2 2 2 0 0 0 0 4 1
0 0 0 0 0 0 0 0 1 0 0 0 0 0 0 0 0 0 0 0 0 0 0 0 0 1 0 20 14 2 0 0 0 0 2 1 2 9 4 0 0 0 0
0 0 0 0 0 0 0 0 0 0 0 0 0 0 0 0 0 0 0 0 0 0 0 0 0 6 0 13 7 1 0 0 0 0 0 19 10 15 11 1 1 0 0
0 0 0 0 0 0 0 0 0 0 0 0 0 0 0 0 0 0 0 0 0 0 0 0 0 0 2 0 6 5 0 0 0 0 0 2 13 12 10 7 2 3 0
0 1 2 1 0 0 0 0 0 0 0 0 0 0 0 0 0 0 0 0 0 0 0 0 0 0 1 5 4 4 3 1 1 1 1 1 5 8 10 3 8 5 0
0 2 1 1 1 0 0 0 0 0 0 0 0 0 0 0 0 0 0 1 0 0 0 0 0 0 0 0 4 2 0 0 0 0 0 1 0 0 1 2 2 0 0
0 2 1 1 0 0 0 0 0 0 0 0 0 0 0 0 0 0 0 0 0 0 0 0 0 0 0 0 0 0 0 0 0 0 0 0 1 0 0 0 0 0 0
2 0 0 0 0 0 0 0 0 0 0 0 0 0 0 0 0 0 0 0 0 0 0 0 0 0 0 0 0 0 0 0 0 0 0 0 0 0 0 0 0 0 0
0 0 0 0 0 0 0 0 0 0 0 0 0 0 0 0 0 0 0 2 4 5 5 6 2 0 2 2 0 0 0 0 0 0 0 0 0 1 2 1 0 0 0